Torna al catalogo

STARLINK-3805

AttivoComunicazioniVLEO
NORAD 52377·PAYLOAD·🇺🇸 United States

Lanciato Apr 29, 2022 da Cape Canaveral Space Force Station

Loading…

Prossimi Passaggi (prossime 24 ore)

TLE

AggiornatoSource: CelesTrak SupGP

Epoca: Sep 14, 2026, 21:36 UTC

1 52377C 22045AY  26257.90048611  .00043235  00000+0  12776-2 0  2576
2 52377  53.1586  51.5503 0001222  78.6587  46.8880 15.34364387    10

Traccia STARLINK-3805 in tempo reale con AllMySat

Download on the App Store